Wind_Speed
50 49 50 50 51 51 50 50 49 49 49 49 49 49 49 49 49 49 50 50 50 50 50 50 50 50 50 51 51 51 52 52 52 52 52 52 53 54
51 50 50 50 50 51 51 50 50 49 50 49 49 49 49 49 49 50 51 51 52 52 52 52 52 52 53 53 53 52 52 52 53 53 54 54 54 55
50 50 51 51 50 49 50 50 50 50 51 51 50 50 50 50 50 50 51 51 52 53 53 54 54 53 53 53 53 53 53 54 54 55 55 55 56 57
49 49 50 51 50 50 50 50 50 50 51 51 50 50 51 52 52 52 52 52 53 53 53 54 55 55 54 54 54 55 55 56 56 57 57 57 58 58
48 48 48 49 49 49 49 49 49 49 49 50 50 50 51 52 52 52 52 53 53 54 54 54 55 56 56 56 56 56 57 58 58 59 59 59 59 59
47 47 47 47 47 47 47 47 48 48 49 49 50 50 50 51 52 52 52 53 54 54 55 55 56 56 57 57 57 58 59 60 61 61 61 60 60 60
46 46 47 48 48 47 47 47 47 48 48 49 51 51 51 52 52 53 54 55 55 56 56 56 57 57 57 58 59 60 61 62 62 61 60 60 59 59
45 45 46 47 48 47 47 46 46 47 48 50 51 52 52 53 53 55 56 56 56 57 58 57 57 57 57 57 58 60 60 61 60 60 60 59 59 58
43 44 45 46 45 46 47 47 47 48 49 49 50 52 52 53 54 56 56 57 57 57 57 56 55 55 56 56 57 58 59 59 59 59 59 59 58 57
42 43 44 44 44 46 46 47 48 48 49 49 51 52 53 54 55 56 57 57 57 56 57 56 55 55 55 55 57 57 56 57 57 57 57 57 56 55
41 41 41 41 43 45 46 46 47 48 49 50 50 51 52 53 54 55 54 54 53 53 54 54 54 54 55 56 56 55 54 54 53 53 54 54 53 53
41 41 41 41 42 43 45 45 46 46 48 48 49 50 50 51 51 51 51 51 51 50 50 51 52 53 53 53 54 54 53 53 53 53 53 52 52 52
40 40 40 40 41 42 44 45 45 45 46 47 47 48 48 48 48 48 49 50 50 50 49 50 51 51 52 51 50 51 52 53 53 53 52 51 52 52
38 39 39 41 41 42 43 44 45 46 46 46 46 46 46 46 46 47 48 49 49 49 50 51 50 50 50 49 49 50 51 51 51 51 51 50 50 51
39 39 40 41 42 44 44 45 45 46 46 46 45 45 45 45 46 46 47 48 49 50 51 51 51 50 49 48 49 50 50 49 48 48 49 49 50 50
39 40 41 42 44 45 45 45 45 45 45 44 44 44 45 45 46 47 47 48 48 49 50 50 50 49 48 48 49 49 48 47 45 46 46 47 47 47
40 40 41 42 43 43 44 44 44 44 44 44 44 44 44 44 45 46 47 48 48 49 49 48 47 47 47 48 48 47 46 45 44 44 45 45 45 45
41 42 42 42 42 42 42 43 43 44 44 44 44 44 44 45 46 47 48 48 48 48 47 46 45 45 45 46 46 46 45 44 43 43 44 43 43 43
42 42 41 41 41 41 41 41 42 43 44 44 44 44 44 45 45 46 47 47 46 46 45 44 44 43 44 44 44 44 44 43 43 44 44 43 42 41
41 40 40 40 40 40 40 41 41 42 42 42 42 42 43 43 44 45 45 44 44 43 43 42 42 42 42 43 43 43 43 43 43 43 42 42 41 40
39 39 39 39 40 40 40 40 41 42 42 42 42 43 43 43 43 43 42 42 42 41 41 41 41 41 41 41 41 41 41 41 41 40 40 39 38 37
39 39 39 39 39 39 40 40 41 42 42 42 43 43 42 42 41 41 41 40 40 40 40 40 40 40 40 39 38 37 37 37 37 36 36 36 35 34
37 37 37 38 39 39 39 40 40 40 41 41 41 41 41 40 40 40 40 40 39 39 39 38 38 37 37 37 36 35 35 34 33 33 32 32 32 31
Wind_Direction
254 255 255 256 256 257 258 259 260 260 258 258 260 261 263 265 266 267 268 269 270 271 272 273 274 274 275 276 277 277 278 278 279 279 279 279 279 279
254 254 255 256 257 258 259 259 260 261 260 259 261 262 263 265 266 267 268 269 271 273 273 273 274 275 275 275 276 277 277 277 278 279 280 280 281 280
255 255 255 256 257 258 259 260 260 260 260 260 262 263 264 265 267 268 269 270 271 273 274 274 275 275 276 276 277 276 277 278 278 279 280 280 281 281
255 255 255 255 256 257 259 260 261 261 261 262 262 263 264 265 267 268 269 271 272 273 275 275 275 276 276 277 277 278 278 279 279 280 280 279 280 280
255 256 256 256 257 258 259 260 261 262 262 263 262 263 264 266 267 269 271 272 273 274 276 276 276 276 276 276 277 278 279 280 280 280 280 280 280 281
256 257 256 256 257 259 259 260 261 263 263 263 264 263 265 267 268 270 271 272 274 275 276 277 277 277 276 276 277 278 280 280 280 280 280 280 280 281
256 257 257 256 257 259 261 261 262 263 264 264 264 264 266 267 269 270 271 274 275 276 276 277 277 277 277 278 279 279 280 281 281 280 280 280 281 282
257 258 258 257 256 257 260 261 262 264 265 265 265 266 267 269 270 271 273 275 275 276 276 276 277 277 277 278 280 280 281 281 281 281 280 280 281 282
257 258 258 257 257 259 260 261 263 265 266 267 267 268 268 270 272 272 274 275 275 275 275 275 276 277 278 279 281 282 282 281 281 281 280 281 282 282
258 259 258 256 258 259 261 262 263 264 266 267 269 269 270 271 273 273 274 276 276 275 275 276 276 277 279 281 282 282 282 282 280 280 280 281 281 281
259 258 257 258 259 260 261 263 265 266 267 269 271 272 272 273 275 275 274 276 277 276 277 278 278 278 280 282 282 282 282 282 281 280 281 281 280 279
258 259 258 260 259 259 261 263 265 267 268 270 272 273 274 275 276 277 276 276 278 278 279 280 281 281 282 282 282 281 281 282 282 281 281 281 280 279
259 259 260 261 261 261 262 264 266 268 270 271 272 273 275 276 276 277 277 276 278 279 280 281 282 283 283 282 282 282 283 283 283 282 282 281 281 281
258 260 262 263 263 263 264 266 267 269 271 272 273 274 275 277 277 277 277 277 278 280 281 282 284 284 283 282 282 283 284 284 283 282 281 281 282 283
260 263 264 265 264 264 266 268 270 271 272 272 273 274 275 276 277 277 278 279 280 281 282 283 284 283 282 282 283 285 285 285 284 282 281 281 283 284
264 265 265 266 265 265 266 268 270 271 271 271 273 274 275 276 277 278 279 281 282 282 283 284 284 283 283 283 285 286 286 285 284 283 283 283 284 284
266 267 266 266 267 267 267 267 268 268 269 271 273 275 276 277 278 279 281 282 282 282 283 283 283 284 285 286 286 286 286 286 284 284 285 285 284 284
267 267 268 269 268 267 267 267 267 268 270 272 274 276 277 277 278 279 281 282 282 282 283 282 282 284 285 287 287 286 286 286 285 285 286 286 286 285
267 267 267 269 268 268 267 268 269 270 272 274 276 277 277 278 280 280 281 282 282 282 282 282 283 284 286 287 287 286 286 287 287 286 286 287 287 286
267 267 267 267 268 269 269 270 271 272 273 274 275 277 278 279 281 281 282 282 283 283 282 282 284 285 286 287 286 286 286 287 287 287 287 286 287 286
266 266 267 268 269 270 270 271 272 272 274 275 276 278 279 280 281 282 282 283 283 282 282 283 284 285 285 286 286 287 287 286 287 288 288 287 288 287
266 267 268 268 269 269 270 271 273 274 275 276 278 279 279 280 281 282 282 283 283 282 283 283 284 285 285 286 286 287 287 286 286 287 289 290 289 288
266 267 268 269 269 270 271 273 274 275 275 277 278 279 279 279 281 282 283 283 281 281 282 284 284 284 285 285 286 286 286 285 286 287 289 290 290 289
Height
5696 5698 5700 5702 5703 5705 5706 5707 5708 5709 5712 5712 5713 5714 5715 5715 5715 5715 5716 5716 5715 5715 5715 5714 5714 5713 5712 5711 5710 5708 5706 5705 5703 5701 5699 5697 5695 5693
5683 5685 5687 5689 5691 5692 5693 5694 5696 5697 5699 5700 5701 5702 5702 5703 5703 5703 5703 5703 5703 5702 5702 5701 5700 5700 5698 5697 5696 5694 5692 5691 5689 5687 5685 5683 5681 5678
5670 5672 5674 5676 5678 5680 5681 5683 5684 5685 5686 5688 5689 5689 5690 5690 5690 5690 5690 5690 5690 5689 5688 5687 5686 5685 5684 5683 5681 5680 5678 5676 5674 5672 5670 5668 5665 5663
5658 5660 5662 5664 5666 5667 5669 5670 5672 5673 5674 5675 5676 5677 5677 5678 5678 5678 5677 5677 5677 5676 5675 5673 5671 5670 5669 5668 5666 5665 5663 5661 5659 5657 5655 5653 5650 5647
5646 5648 5649 5652 5654 5656 5657 5659 5660 5660 5661 5662 5663 5664 5665 5665 5665 5665 5664 5664 5663 5662 5660 5659 5657 5655 5654 5653 5651 5650 5648 5646 5645 5642 5639 5636 5634 5631
5634 5636 5637 5640 5642 5644 5645 5646 5648 5648 5649 5649 5651 5651 5652 5652 5652 5651 5651 5650 5649 5648 5646 5644 5642 5641 5639 5638 5637 5635 5633 5630 5627 5625 5622 5620 5617 5614
5622 5624 5626 5628 5630 5632 5633 5635 5636 5636 5637 5637 5638 5638 5639 5639 5639 5638 5637 5636 5635 5633 5631 5629 5628 5626 5624 5623 5620 5618 5616 5613 5610 5607 5605 5602 5600 5597
5610 5612 5614 5616 5617 5619 5621 5622 5623 5624 5624 5624 5625 5625 5626 5625 5625 5624 5623 5622 5621 5620 5617 5615 5613 5611 5609 5607 5605 5602 5599 5596 5593 5590 5588 5585 5583 5580
5598 5600 5602 5603 5605 5607 5609 5610 5611 5611 5612 5612 5612 5612 5612 5611 5610 5610 5608 5606 5605 5603 5601 5601 5598 5596 5594 5591 5588 5585 5581 5578 5576 5573 5571 5568 5566 5563
5587 5588 5590 5592 5594 5596 5597 5598 5599 5599 5600 5599 5599 5599 5598 5597 5596 5595 5593 5591 5590 5588 5586 5585 5583 5581 5578 5575 5572 5569 5565 5562 5559 5556 5554 5552 5549 5547
5576 5578 5579 5581 5583 5584 5585 5586 5587 5587 5587 5586 5585 5585 5584 5583 5581 5579 5578 5577 5576 5574 5571 5569 5568 5566 5564 5560 5557 5553 5550 5546 5543 5541 5538 5535 5533 5530
5566 5567 5568 5570 5571 5571 5572 5573 5574 5574 5574 5573 5572 5571 5570 5569 5567 5566 5564 5563 5561 5560 5558 5555 5553 5550 5549 5547 5542 5538 5535 5532 5529 5526 5523 5520 5517 5514
5556 5557 5558 5559 5559 5560 5560 5561 5562 5561 5560 5560 5559 5558 5557 5556 5554 5553 5551 5549 5548 5546 5544 5541 5539 5536 5533 5532 5529 5525 5521 5518 5515 5512 5509 5506 5502 5499
5545 5546 5547 5547 5548 5548 5549 5549 5549 5548 5548 5548 5547 5546 5544 5543 5541 5540 5538 5536 5534 5532 5529 5527 5525 5522 5519 5517 5515 5512 5508 5504 5501 5497 5495 5492 5489 5485
5535 5535 5536 5536 5536 5537 5537 5537 5536 5536 5536 5535 5535 5533 5532 5530 5529 5527 5525 5524 5521 5519 5516 5513 5510 5507 5504 5503 5501 5498 5494 5491 5486 5483 5480 5477 5475 5471
5523 5524 5524 5524 5524 5524 5524 5524 5524 5524 5523 5523 5522 5521 5519 5518 5516 5515 5513 5511 5509 5506 5503 5499 5496 5494 5491 5489 5486 5483 5480 5477 5474 5470 5466 5464 5461 5457
5512 5512 5512 5512 5512 5512 5512 5512 5512 5511 5511 5511 5510 5509 5507 5506 5504 5502 5500 5498 5496 5494 5490 5487 5483 5481 5478 5476 5473 5470 5466 5463 5460 5457 5454 5451 5448 5444
5500 5500 5500 5500 5500 5500 5500 5500 5500 5499 5499 5498 5497 5496 5495 5494 5492 5490 5487 5485 5483 5480 5477 5474 5472 5469 5467 5463 5460 5457 5454 5451 5448 5445 5441 5438 5436 5433
5488 5488 5489 5488 5488 5488 5488 5488 5488 5488 5487 5486 5485 5484 5483 5481 5479 5477 5475 5473 5470 5467 5465 5462 5460 5457 5455 5452 5449 5444 5442 5439 5436 5433 5429 5426 5424 5421
5476 5477 5477 5477 5477 5477 5477 5476 5476 5475 5475 5474 5473 5471 5470 5469 5467 5465 5462 5460 5458 5455 5453 5450 5448 5445 5443 5440 5438 5434 5430 5427 5424 5421 5418 5415 5412 5409
5465 5465 5465 5465 5465 5465 5465 5464 5464 5463 5462 5462 5460 5459 5458 5456 5454 5452 5450 5448 5445 5443 5441 5439 5436 5433 5430 5428 5426 5424 5420 5416 5412 5410 5406 5404 5402 5400
5453 5453 5453 5453 5453 5453 5453 5452 5452 5451 5450 5449 5448 5447 5445 5443 5442 5440 5438 5436 5433 5431 5429 5427 5424 5422 5419 5417 5415 5412 5409 5406 5402 5399 5396 5393 5391 5390
5442 5442 5442 5441 5441 5441 5441 5440 5440 5439 5438 5437 5436 5434 5433 5431 5430 5428 5426 5424 5421 5420 5418 5415 5413 5411 5408 5406 5404 5401 5399 5396 5393 5391 5389 5385 5383 5381